User: anonymous   Login
Location: Casteau
(50.5142°N, 4.0161°E)
Time: 23:09:43
(UTC+00:00)
Language:

Altair - Orbit

View from above orbital plane
View from above orbital plane
View from above satellite
View from above satellite

Ground track
Ground track

The orbit data is extracted from the following two-line orbital elements,

1 00050U 60009B   21209.30509933 -.00000100  00000-0 -12273-3 0  9997
2 00050  47.2323 301.6440 0113375  95.4904 265.8830 12.20116035719771
Epoch (UTC): 28 July 2021 07:19:20
Eccentricity: 0.0113375
inclination: 47.2323°
perigee height: 1501 km
apogee height: 1682 km
right ascension of ascending node: 301.6440°
argument of perigee: 95.4904°
revolutions per day: 12.20116035
mean anomaly at epoch: 265.8830°
orbit number at epoch: 71977

The dashed part of the orbit path shows where the satellite is in the earth's shadow,  

DLR